Location: St. Croix
(17.7278°N, 64.7644°W)
Time: 02:15:39
(UTC-04:00)

ISS - Visible Passes

Search period start: 25 June 2018 00:00
Search period end: 05 July 2018 00:00
Orbit: 402 x 407 km, 51.6° (Epoch: 25 June)

Date Brightness Start Highest point End Pass type
(mag) Time Alt. Az. Time Alt. Az. Time Alt. Az.
25 Jun -1.5 04:49:12 10° S 04:51:39 20° SE 04:54:07 10° ENE visible
27 Jun -3.8 04:42:09 27° SSW 04:43:48 79° SE 04:47:04 10° NE visible
28 Jun -1.8 03:52:30 25° ESE 03:52:30 25° ESE 03:54:37 10° ENE visible
29 Jun -2.5 04:35:26 24° WNW 04:36:00 26° NW 04:38:49 10° N visible
30 Jun -1.6 03:45:35 25° NNE 03:45:35 25° NNE 03:47:08 10° NNE visible
02 Jul -0.7 03:38:19 11° N 03:38:19 11° N 03:38:29 10° N visible
